Year,Month,Day,Hour,Minute,Value (Times are PST for temperature in C)
2017,08,10,00,00,20.00
2017,08,10,00,01,19.90
2017,08,10,00,02,19.90
2017,08,10,00,03,19.90
2017,08,10,00,04,19.90
2017,08,10,00,05,19.80
2017,08,10,00,06,19.80
2017,08,10,00,07,19.80
2017,08,10,00,08,19.80
2017,08,10,00,09,19.70
2017,08,10,00,10,19.70
2017,08,10,00,11,19.70
2017,08,10,00,12,19.60
2017,08,10,00,13,19.60
2017,08,10,00,14,19.60
2017,08,10,00,15,19.60
2017,08,10,00,16,19.50
2017,08,10,00,17,19.50
2017,08,10,00,18,19.50
2017,08,10,00,19,19.40
2017,08,10,00,20,19.40
2017,08,10,00,21,19.40
2017,08,10,00,22,19.30
2017,08,10,00,23,19.30
2017,08,10,00,24,19.30
2017,08,10,00,25,19.30
2017,08,10,00,26,19.30
2017,08,10,00,27,19.20
2017,08,10,00,28,19.20
2017,08,10,00,29,19.20
2017,08,10,00,30,19.10
2017,08,10,00,31,19.10
2017,08,10,00,32,19.10
2017,08,10,00,33,19.10
2017,08,10,00,34,19.10
2017,08,10,00,35,19.10
2017,08,10,00,36,19.10
2017,08,10,00,37,19.10
2017,08,10,00,38,19.10
2017,08,10,00,39,19.10
2017,08,10,00,40,19.10
2017,08,10,00,41,19.10
2017,08,10,00,42,19.00
2017,08,10,00,43,19.00
2017,08,10,00,44,19.00
2017,08,10,00,45,19.00
2017,08,10,00,46,18.90
2017,08,10,00,47,18.90
2017,08,10,00,48,18.90
2017,08,10,00,49,18.90
2017,08,10,00,50,18.90
2017,08,10,00,51,18.80
2017,08,10,00,52,18.80
2017,08,10,00,53,18.80
2017,08,10,00,54,18.80
2017,08,10,00,55,18.70
2017,08,10,00,56,18.70
2017,08,10,00,57,18.70
2017,08,10,00,58,18.70
2017,08,10,00,59,18.60
2017,08,10,01,00,18.60
2017,08,10,01,01,18.60
2017,08,10,01,02,18.60
2017,08,10,01,03,18.50
2017,08,10,01,04,18.50
2017,08,10,01,05,18.50
2017,08,10,01,06,18.50
2017,08,10,01,07,18.40
2017,08,10,01,08,18.40
2017,08,10,01,09,18.40
2017,08,10,01,10,18.40
2017,08,10,01,11,18.40
2017,08,10,01,12,18.30
2017,08,10,01,13,18.30
2017,08,10,01,14,18.30
2017,08,10,01,15,18.30
2017,08,10,01,16,18.30
2017,08,10,01,17,18.30
2017,08,10,01,18,18.20
2017,08,10,01,19,18.20
2017,08,10,01,20,18.20
2017,08,10,01,21,18.20
2017,08,10,01,22,18.20
2017,08,10,01,23,18.20
2017,08,10,01,24,18.10
2017,08,10,01,25,18.10
2017,08,10,01,26,18.10
2017,08,10,01,27,18.10
2017,08,10,01,28,18.00
2017,08,10,01,29,18.00
2017,08,10,01,30,18.00
2017,08,10,01,31,17.90
2017,08,10,01,32,17.90
2017,08,10,01,33,17.90
2017,08,10,01,34,17.90
2017,08,10,01,35,17.80
2017,08,10,01,36,17.80
2017,08,10,01,37,17.80
2017,08,10,01,38,17.80
2017,08,10,01,39,17.80
2017,08,10,01,40,17.80
2017,08,10,01,41,17.80
2017,08,10,01,42,17.80
2017,08,10,01,43,17.70
2017,08,10,01,44,17.70
2017,08,10,01,45,17.70
2017,08,10,01,46,17.70
2017,08,10,01,47,17.70
2017,08,10,01,48,17.70
2017,08,10,01,49,17.70
2017,08,10,01,50,17.70
2017,08,10,01,51,17.70
2017,08,10,01,52,17.70
2017,08,10,01,53,17.70
2017,08,10,01,54,17.70
2017,08,10,01,55,17.60
2017,08,10,01,56,17.60
2017,08,10,01,57,17.60
2017,08,10,01,58,17.60
2017,08,10,01,59,17.60
2017,08,10,02,00,17.60
2017,08,10,02,01,17.50
2017,08,10,02,02,17.50
2017,08,10,02,03,17.40
2017,08,10,02,04,17.40
2017,08,10,02,05,17.40
2017,08,10,02,06,17.40
2017,08,10,02,07,17.30
2017,08,10,02,08,17.30
2017,08,10,02,09,17.30
2017,08,10,02,10,17.30
2017,08,10,02,11,17.20
2017,08,10,02,12,17.20
2017,08,10,02,13,17.20
2017,08,10,02,14,17.20
2017,08,10,02,15,17.20
2017,08,10,02,16,17.10
2017,08,10,02,17,17.10
2017,08,10,02,18,17.10
2017,08,10,02,19,17.10
2017,08,10,02,20,17.10
2017,08,10,02,21,17.10
2017,08,10,02,22,17.10
2017,08,10,02,23,17.00
2017,08,10,02,24,17.00
2017,08,10,02,25,17.00
2017,08,10,02,26,17.00
2017,08,10,02,27,17.00
2017,08,10,02,28,17.00
2017,08,10,02,29,16.90
2017,08,10,02,30,16.90
2017,08,10,02,31,16.90
2017,08,10,02,32,16.90
2017,08,10,02,33,16.90
2017,08,10,02,34,16.90
2017,08,10,02,35,16.90
2017,08,10,02,36,16.80
2017,08,10,02,37,16.80
2017,08,10,02,38,16.80
2017,08,10,02,39,16.80
2017,08,10,02,40,16.80
2017,08,10,02,41,16.70
2017,08,10,02,42,16.70
2017,08,10,02,43,16.70
2017,08,10,02,44,16.70
2017,08,10,02,45,16.70
2017,08,10,02,46,16.70
2017,08,10,02,47,16.60
2017,08,10,02,48,16.60
2017,08,10,02,49,16.60
2017,08,10,02,50,16.60
2017,08,10,02,51,16.60
2017,08,10,02,52,16.50
2017,08,10,02,53,16.50
2017,08,10,02,54,16.50
2017,08,10,02,55,16.40
2017,08,10,02,56,16.40
2017,08,10,02,57,16.40
2017,08,10,02,58,16.40
2017,08,10,02,59,16.40
2017,08,10,03,00,16.40
2017,08,10,03,01,16.30
2017,08,10,03,02,16.30
2017,08,10,03,03,16.30
2017,08,10,03,04,16.30
2017,08,10,03,05,16.30
2017,08,10,03,06,16.30
2017,08,10,03,07,16.20
2017,08,10,03,08,16.20
2017,08,10,03,09,16.20
2017,08,10,03,10,16.20
2017,08,10,03,11,16.10
2017,08,10,03,12,16.10
2017,08,10,03,13,16.10
2017,08,10,03,14,16.10
2017,08,10,03,15,16.10
2017,08,10,03,16,16.10
2017,08,10,03,17,16.00
2017,08,10,03,18,16.00
2017,08,10,03,19,16.00
2017,08,10,03,20,16.00
2017,08,10,03,21,15.90
2017,08,10,03,22,15.90
2017,08,10,03,23,15.90
2017,08,10,03,24,15.90
2017,08,10,03,25,15.90
2017,08,10,03,26,15.90
2017,08,10,03,27,15.80
2017,08,10,03,28,15.80
2017,08,10,03,29,15.80
2017,08,10,03,30,15.80
2017,08,10,03,31,15.80
2017,08,10,03,32,15.80
2017,08,10,03,33,15.80
2017,08,10,03,34,15.80
2017,08,10,03,35,15.80
2017,08,10,03,36,15.80
2017,08,10,03,37,15.80
2017,08,10,03,38,15.80
2017,08,10,03,39,15.80
2017,08,10,03,40,15.80
2017,08,10,03,41,15.80
2017,08,10,03,42,15.80
2017,08,10,03,43,15.80
2017,08,10,03,44,15.80
2017,08,10,03,45,15.80
2017,08,10,03,46,15.80
2017,08,10,03,47,15.80
2017,08,10,03,48,15.80
2017,08,10,03,49,15.70
2017,08,10,03,50,15.70
2017,08,10,03,51,15.70
2017,08,10,03,52,15.70
2017,08,10,03,53,15.70
2017,08,10,03,54,15.70
2017,08,10,03,55,15.60
2017,08,10,03,56,15.60
2017,08,10,03,57,15.60
2017,08,10,03,58,15.60
2017,08,10,03,59,15.60
2017,08,10,04,00,15.60
2017,08,10,04,01,15.60
2017,08,10,04,02,15.50
2017,08,10,04,03,15.50
2017,08,10,04,04,15.50
2017,08,10,04,05,15.50
2017,08,10,04,06,15.50
2017,08,10,04,07,15.40
2017,08,10,04,08,15.40
2017,08,10,04,09,15.40
2017,08,10,04,10,15.40
2017,08,10,04,11,15.40
2017,08,10,04,12,15.40
2017,08,10,04,13,15.40
2017,08,10,04,14,15.40
2017,08,10,04,15,15.40
2017,08,10,04,16,15.30
2017,08,10,04,17,15.30
2017,08,10,04,18,15.30
2017,08,10,04,19,15.30
2017,08,10,04,20,15.30
2017,08,10,04,21,15.30
2017,08,10,04,22,15.20
2017,08,10,04,23,15.20
2017,08,10,04,24,15.20
2017,08,10,04,25,15.20
2017,08,10,04,26,15.20
2017,08,10,04,27,15.20
2017,08,10,04,28,15.20
2017,08,10,04,29,15.20
2017,08,10,04,30,15.20
2017,08,10,04,31,15.20
2017,08,10,04,32,15.20
2017,08,10,04,33,15.20
2017,08,10,04,34,15.20
2017,08,10,04,35,15.10
2017,08,10,04,36,15.10
2017,08,10,04,37,15.10
2017,08,10,04,38,15.00
2017,08,10,04,39,15.00
2017,08,10,04,40,15.00
2017,08,10,04,41,15.00
2017,08,10,04,42,15.00
2017,08,10,04,43,15.00
2017,08,10,04,44,15.00
2017,08,10,04,45,15.00
2017,08,10,04,46,15.00
2017,08,10,04,47,15.00
2017,08,10,04,48,15.00
2017,08,10,04,49,15.00
2017,08,10,04,50,15.00
2017,08,10,04,51,15.00
2017,08,10,04,52,15.00
2017,08,10,04,53,15.00
2017,08,10,04,54,15.00
2017,08,10,04,55,15.00
2017,08,10,04,56,15.00
2017,08,10,04,57,15.00
2017,08,10,04,58,15.00
2017,08,10,04,59,15.00
2017,08,10,05,00,15.00
2017,08,10,05,01,15.00
2017,08,10,05,02,15.00
2017,08,10,05,03,15.00
2017,08,10,05,04,15.00
2017,08,10,05,05,15.00
2017,08,10,05,06,15.00
2017,08,10,05,07,15.00
2017,08,10,05,08,15.00
2017,08,10,05,09,15.00
2017,08,10,05,10,15.00
2017,08,10,05,11,15.00
2017,08,10,05,12,14.90
2017,08,10,05,13,14.90
2017,08,10,05,14,14.90
2017,08,10,05,15,14.80
2017,08,10,05,16,14.80
2017,08,10,05,17,14.80
2017,08,10,05,18,14.80
2017,08,10,05,19,14.80
2017,08,10,05,20,14.80
2017,08,10,05,21,14.80
2017,08,10,05,22,14.80
2017,08,10,05,23,14.80
2017,08,10,05,24,14.80
2017,08,10,05,25,14.70
2017,08,10,05,26,14.70
2017,08,10,05,27,14.70
2017,08,10,05,28,14.70
2017,08,10,05,29,14.70
2017,08,10,05,30,14.70
2017,08,10,05,31,14.70
2017,08,10,05,32,14.70
2017,08,10,05,33,14.70
2017,08,10,05,34,14.70
2017,08,10,05,35,14.60
2017,08,10,05,36,14.60
2017,08,10,05,37,14.70
2017,08,10,05,38,14.70
2017,08,10,05,39,14.60
2017,08,10,05,40,14.60
2017,08,10,05,41,14.60
2017,08,10,05,42,14.60
2017,08,10,05,43,14.60
2017,08,10,05,44,14.60
2017,08,10,05,45,14.60
2017,08,10,05,46,14.60
2017,08,10,05,47,14.50
2017,08,10,05,48,14.50
2017,08,10,05,49,14.50
2017,08,10,05,50,14.50
2017,08,10,05,51,14.50
2017,08,10,05,52,14.40
2017,08,10,05,53,14.40
2017,08,10,05,54,14.40
2017,08,10,05,55,14.40
2017,08,10,05,56,14.40
2017,08,10,05,57,14.40
2017,08,10,05,58,14.40
2017,08,10,05,59,14.40
2017,08,10,06,00,14.40
2017,08,10,06,01,14.40
2017,08,10,06,02,14.40
2017,08,10,06,03,14.40
2017,08,10,06,04,14.40
2017,08,10,06,05,14.40
2017,08,10,06,06,14.40
2017,08,10,06,07,14.40
2017,08,10,06,08,14.40
2017,08,10,06,09,14.40
2017,08,10,06,10,14.40
2017,08,10,06,11,14.40
2017,08,10,06,12,14.40
2017,08,10,06,13,14.40
2017,08,10,06,14,14.40
2017,08,10,06,15,14.40
2017,08,10,06,16,14.40
2017,08,10,06,17,14.30
2017,08,10,06,18,14.30
2017,08,10,06,19,14.30
2017,08,10,06,20,14.30
2017,08,10,06,21,14.30
2017,08,10,06,22,14.30
2017,08,10,06,23,14.30
2017,08,10,06,24,14.30
2017,08,10,06,25,14.30
2017,08,10,06,26,14.30
2017,08,10,06,27,14.30
2017,08,10,06,28,14.30
2017,08,10,06,29,14.30
2017,08,10,06,30,14.30
2017,08,10,06,31,14.30
2017,08,10,06,32,14.30
2017,08,10,06,33,14.30
2017,08,10,06,34,14.30
2017,08,10,06,35,14.30
2017,08,10,06,36,14.30
2017,08,10,06,37,14.30
2017,08,10,06,38,14.30
2017,08,10,06,39,14.30
2017,08,10,06,40,14.30
2017,08,10,06,41,14.30
2017,08,10,06,42,14.30
2017,08,10,06,43,14.30
2017,08,10,06,44,14.30
2017,08,10,06,45,14.30
2017,08,10,06,46,14.30
2017,08,10,06,47,14.30
2017,08,10,06,48,14.30
2017,08,10,06,49,14.30
2017,08,10,06,50,14.30
2017,08,10,06,51,14.30
2017,08,10,06,52,14.30
2017,08,10,06,53,14.30
2017,08,10,06,54,14.30
2017,08,10,06,55,14.30
2017,08,10,06,56,14.30
2017,08,10,06,57,14.30
2017,08,10,06,58,14.30
2017,08,10,06,59,14.30
2017,08,10,07,00,14.30
2017,08,10,07,01,14.30
2017,08,10,07,02,14.30
2017,08,10,07,03,14.30
2017,08,10,07,04,14.30
2017,08,10,07,05,14.30
2017,08,10,07,06,14.30
2017,08,10,07,07,14.30
2017,08,10,07,08,14.40
2017,08,10,07,09,14.40
2017,08,10,07,10,14.40
2017,08,10,07,11,14.40
2017,08,10,07,12,14.40
2017,08,10,07,13,14.40
2017,08,10,07,14,14.40
2017,08,10,07,15,14.40
2017,08,10,07,16,14.40
2017,08,10,07,17,14.40
2017,08,10,07,18,14.40
2017,08,10,07,19,14.40
2017,08,10,07,20,14.50
2017,08,10,07,21,14.50
2017,08,10,07,22,14.50
2017,08,10,07,23,14.50
2017,08,10,07,24,14.50
2017,08,10,07,25,14.60
2017,08,10,07,26,14.60
2017,08,10,07,27,14.60
2017,08,10,07,28,14.60
2017,08,10,07,29,14.60
2017,08,10,07,30,14.60
2017,08,10,07,31,14.70
2017,08,10,07,32,14.70
2017,08,10,07,33,14.70
2017,08,10,07,34,14.70
2017,08,10,07,35,14.80
2017,08,10,07,36,14.80
2017,08,10,07,37,14.80
2017,08,10,07,38,14.80
2017,08,10,07,39,14.90
2017,08,10,07,40,14.90
2017,08,10,07,41,15.00
2017,08,10,07,42,15.00
2017,08,10,07,43,15.00
2017,08,10,07,44,15.00
2017,08,10,07,45,15.00
2017,08,10,07,46,15.00
2017,08,10,07,47,15.00
2017,08,10,07,48,15.00
2017,08,10,07,49,15.00
2017,08,10,07,50,15.00
2017,08,10,07,51,15.00
2017,08,10,07,52,15.10
2017,08,10,07,53,15.20
2017,08,10,07,54,15.20
2017,08,10,07,55,15.20
2017,08,10,07,56,15.30
2017,08,10,07,57,15.30
2017,08,10,07,58,15.40
2017,08,10,07,59,15.40
2017,08,10,08,00,15.50
2017,08,10,08,01,15.50
2017,08,10,08,02,15.60
2017,08,10,08,03,15.60
2017,08,10,08,04,15.70
2017,08,10,08,05,15.70
2017,08,10,08,06,15.80
2017,08,10,08,07,15.90
2017,08,10,08,08,15.90
2017,08,10,08,09,16.00
2017,08,10,08,10,16.10
2017,08,10,08,11,16.10
2017,08,10,08,12,16.20
2017,08,10,08,13,16.30
2017,08,10,08,14,16.30
2017,08,10,08,15,16.40
2017,08,10,08,16,16.40
2017,08,10,08,17,16.50
2017,08,10,08,18,16.60
2017,08,10,08,19,16.60
2017,08,10,08,20,16.70
2017,08,10,08,21,16.70
2017,08,10,08,22,16.80
2017,08,10,08,23,16.80
2017,08,10,08,24,16.90
2017,08,10,08,25,16.90
2017,08,10,08,26,16.90
2017,08,10,08,27,17.00
2017,08,10,08,28,17.10
2017,08,10,08,29,17.10
2017,08,10,08,30,17.20
2017,08,10,08,31,17.20
2017,08,10,08,32,17.30
2017,08,10,08,33,17.30
2017,08,10,08,34,17.40
2017,08,10,08,35,17.40
2017,08,10,08,36,17.50
2017,08,10,08,37,17.50
2017,08,10,08,38,17.60
2017,08,10,08,39,17.60
2017,08,10,08,40,17.70
2017,08,10,08,41,17.70
2017,08,10,08,42,17.70
2017,08,10,08,43,17.80
2017,08,10,08,44,17.80
2017,08,10,08,45,17.90
2017,08,10,08,46,17.90
2017,08,10,08,47,18.00
2017,08,10,08,48,18.00
2017,08,10,08,49,18.10
2017,08,10,08,50,18.10
2017,08,10,08,51,18.20
2017,08,10,08,52,18.20
2017,08,10,08,53,18.30
2017,08,10,08,54,18.30
2017,08,10,08,55,18.30
2017,08,10,08,56,18.40
2017,08,10,08,57,18.40
2017,08,10,08,58,18.50
2017,08,10,08,59,18.50
2017,08,10,09,00,18.60
2017,08,10,09,01,18.60
2017,08,10,09,02,18.70
2017,08,10,09,03,18.70
2017,08,10,09,04,18.70
2017,08,10,09,05,18.80
2017,08,10,09,06,18.90
2017,08,10,09,07,18.90
2017,08,10,09,08,18.90
2017,08,10,09,09,19.00
2017,08,10,09,10,19.10
2017,08,10,09,11,19.10
2017,08,10,09,12,19.20
2017,08,10,09,13,19.20
2017,08,10,09,14,19.30
2017,08,10,09,15,19.30
2017,08,10,09,16,19.40
2017,08,10,09,17,19.40
2017,08,10,09,18,19.50
2017,08,10,09,19,19.50
2017,08,10,09,20,19.50
2017,08,10,09,21,19.50
2017,08,10,09,22,19.60
2017,08,10,09,23,19.70
2017,08,10,09,24,19.80
2017,08,10,09,25,19.90
2017,08,10,09,26,20.00
2017,08,10,09,27,20.00
2017,08,10,09,28,20.10
2017,08,10,09,29,20.20
2017,08,10,09,30,20.30
2017,08,10,09,31,20.30
2017,08,10,09,32,20.40
2017,08,10,09,33,20.50
2017,08,10,09,34,20.60
2017,08,10,09,35,20.70
2017,08,10,09,36,20.70
2017,08,10,09,37,20.70
2017,08,10,09,38,20.90
2017,08,10,09,39,20.90
2017,08,10,09,40,21.00
2017,08,10,09,41,21.10
2017,08,10,09,42,21.10
2017,08,10,09,43,21.20
2017,08,10,09,44,21.30
2017,08,10,09,45,21.40
2017,08,10,09,46,21.40
2017,08,10,09,47,21.50
2017,08,10,09,48,21.60
2017,08,10,09,49,21.70
2017,08,10,09,50,21.70
2017,08,10,09,51,21.70
2017,08,10,09,52,21.70
2017,08,10,09,53,21.70
2017,08,10,09,54,21.70
2017,08,10,09,55,21.70
2017,08,10,09,56,21.70
2017,08,10,09,57,21.80
2017,08,10,09,58,21.80
2017,08,10,09,59,21.90
2017,08,10,10,00,21.90
2017,08,10,10,01,22.00
2017,08,10,10,02,22.00
2017,08,10,10,03,22.10
2017,08,10,10,04,22.10
2017,08,10,10,05,22.20
2017,08,10,10,06,22.20
2017,08,10,10,07,22.30
2017,08,10,10,08,22.40
2017,08,10,10,09,22.40
2017,08,10,10,10,22.50
2017,08,10,10,11,22.60
2017,08,10,10,12,22.70
2017,08,10,10,13,22.80
2017,08,10,10,14,22.90
2017,08,10,10,15,23.00
2017,08,10,10,16,23.10
2017,08,10,10,17,23.20
2017,08,10,10,18,23.30
2017,08,10,10,19,23.40
2017,08,10,10,20,23.40
2017,08,10,10,21,23.50
2017,08,10,10,22,23.60
2017,08,10,10,23,23.70
2017,08,10,10,24,23.70
2017,08,10,10,25,23.80
2017,08,10,10,26,23.80
2017,08,10,10,27,23.80
2017,08,10,10,28,23.90
2017,08,10,10,29,24.00
2017,08,10,10,30,24.10
2017,08,10,10,31,24.20
2017,08,10,10,32,24.30
2017,08,10,10,33,24.40
2017,08,10,10,34,24.40
2017,08,10,10,35,24.50
2017,08,10,10,36,24.60
2017,08,10,10,37,24.60
2017,08,10,10,38,24.70
2017,08,10,10,39,24.70
2017,08,10,10,40,24.70
2017,08,10,10,41,24.80
2017,08,10,10,42,24.90
2017,08,10,10,43,25.00
2017,08,10,10,44,25.10
2017,08,10,10,45,25.20
2017,08,10,10,46,25.30
2017,08,10,10,47,25.30
2017,08,10,10,48,25.40
2017,08,10,10,49,25.40
2017,08,10,10,50,25.50
2017,08,10,10,51,25.50
2017,08,10,10,52,25.60
2017,08,10,10,53,25.60
2017,08,10,10,54,25.70
2017,08,10,10,55,25.80
2017,08,10,10,56,25.80
2017,08,10,10,57,25.80
2017,08,10,10,58,25.90
2017,08,10,10,59,25.90
2017,08,10,11,00,26.00
2017,08,10,11,01,26.10
2017,08,10,11,02,26.10
2017,08,10,11,03,26.20
2017,08,10,11,04,26.30
2017,08,10,11,05,26.30
2017,08,10,11,06,26.40
2017,08,10,11,07,26.40
2017,08,10,11,08,26.50
2017,08,10,11,09,26.60
2017,08,10,11,10,26.60
2017,08,10,11,11,26.70
2017,08,10,11,12,26.70
2017,08,10,11,13,26.70
2017,08,10,11,14,26.80
2017,08,10,11,15,26.80
2017,08,10,11,16,26.80
2017,08,10,11,17,26.80
2017,08,10,11,18,26.80
2017,08,10,11,19,26.80
2017,08,10,11,20,26.80
2017,08,10,11,21,26.90
2017,08,10,11,22,26.90
2017,08,10,11,23,26.90
2017,08,10,11,24,27.00
2017,08,10,11,25,27.00
2017,08,10,11,26,27.10
2017,08,10,11,27,27.10
2017,08,10,11,28,27.10
2017,08,10,11,29,27.10
2017,08,10,11,30,27.20
2017,08,10,11,31,27.20
2017,08,10,11,32,27.30
2017,08,10,11,33,27.30
2017,08,10,11,34,27.40
2017,08,10,11,35,27.40
2017,08,10,11,36,27.40
2017,08,10,11,37,27.30
2017,08,10,11,38,27.20
2017,08,10,11,39,27.20
2017,08,10,11,40,27.20
2017,08,10,11,41,27.30
2017,08,10,11,42,27.30
2017,08,10,11,43,27.30
2017,08,10,11,44,27.30
2017,08,10,11,45,27.30
2017,08,10,11,46,27.30
2017,08,10,11,47,27.20
2017,08,10,11,48,27.10
2017,08,10,11,49,27.10
2017,08,10,11,50,27.10
2017,08,10,11,51,27.20
2017,08,10,11,52,27.20
2017,08,10,11,53,27.20
2017,08,10,11,54,27.20
2017,08,10,11,55,27.20
2017,08,10,11,56,27.20
2017,08,10,11,57,27.20
2017,08,10,11,58,27.20
2017,08,10,11,59,27.30
2017,08,10,12,00,27.30
2017,08,10,12,01,27.30
2017,08,10,12,02,27.30
2017,08,10,12,03,27.50
2017,08,10,12,04,27.50
2017,08,10,12,05,27.60
2017,08,10,12,06,27.70
2017,08,10,12,07,27.70
2017,08,10,12,08,27.60
2017,08,10,12,09,27.60
2017,08,10,12,10,27.70
2017,08,10,12,11,27.70
2017,08,10,12,12,27.80
2017,08,10,12,13,27.80
2017,08,10,12,14,27.90
2017,08,10,12,15,27.90
2017,08,10,12,16,27.90
2017,08,10,12,17,27.90
2017,08,10,12,18,28.00
2017,08,10,12,19,28.00
2017,08,10,12,20,28.00
2017,08,10,12,21,28.10
2017,08,10,12,22,28.10
2017,08,10,12,23,28.20
2017,08,10,12,24,28.20
2017,08,10,12,25,28.30
2017,08,10,12,26,28.30
2017,08,10,12,27,28.20
2017,08,10,12,28,28.20
2017,08,10,12,29,28.20
2017,08,10,12,30,28.20
2017,08,10,12,31,28.20
2017,08,10,12,32,28.20
2017,08,10,12,33,28.20
2017,08,10,12,34,28.20
2017,08,10,12,35,28.20
2017,08,10,12,36,28.20
2017,08,10,12,37,28.20
2017,08,10,12,38,28.20
2017,08,10,12,39,28.20
2017,08,10,12,40,28.30
2017,08,10,12,41,28.30
2017,08,10,12,42,28.40
2017,08,10,12,43,28.50
2017,08,10,12,44,28.60
2017,08,10,12,45,28.70
2017,08,10,12,46,28.70
2017,08,10,12,47,28.70
2017,08,10,12,48,28.70
2017,08,10,12,49,28.70
2017,08,10,12,50,28.80
2017,08,10,12,51,28.80
2017,08,10,12,52,28.80
2017,08,10,12,53,28.80
2017,08,10,12,54,28.80
2017,08,10,12,55,28.80
2017,08,10,12,56,28.80
2017,08,10,12,57,28.80
2017,08,10,12,58,28.80
2017,08,10,12,59,28.70
2017,08,10,13,00,28.80
2017,08,10,13,01,28.80
2017,08,10,13,02,28.80
2017,08,10,13,03,28.90
2017,08,10,13,04,28.90
2017,08,10,13,05,29.00
2017,08,10,13,06,29.00
2017,08,10,13,07,29.00
2017,08,10,13,08,29.10
2017,08,10,13,09,29.10
2017,08,10,13,10,29.10
2017,08,10,13,11,29.20
2017,08,10,13,12,29.10
2017,08,10,13,13,29.10
2017,08,10,13,14,29.10
2017,08,10,13,15,29.10
2017,08,10,13,16,29.10
2017,08,10,13,17,29.10
2017,08,10,13,18,29.10
2017,08,10,13,19,29.20
2017,08,10,13,20,29.20
2017,08,10,13,21,29.20
2017,08,10,13,22,29.20
2017,08,10,13,23,29.30
2017,08,10,13,24,29.30
2017,08,10,13,25,29.30
2017,08,10,13,26,29.30
2017,08,10,13,27,29.30
2017,08,10,13,28,29.40
2017,08,10,13,29,29.50
2017,08,10,13,30,29.60
2017,08,10,13,31,29.60
2017,08,10,13,32,29.70
2017,08,10,13,33,29.70
2017,08,10,13,34,29.80
2017,08,10,13,35,29.70
2017,08,10,13,36,29.70
2017,08,10,13,37,29.70
2017,08,10,13,38,29.70
2017,08,10,13,39,29.70
2017,08,10,13,40,29.80
2017,08,10,13,41,29.80
2017,08,10,13,42,29.80
2017,08,10,13,43,29.80
2017,08,10,13,44,29.90
2017,08,10,13,45,29.90
2017,08,10,13,46,29.90
2017,08,10,13,47,29.90
2017,08,10,13,48,29.90
2017,08,10,13,49,29.90
2017,08,10,13,50,29.90
2017,08,10,13,51,29.90
2017,08,10,13,52,30.00
2017,08,10,13,53,30.10
2017,08,10,13,54,30.20
2017,08,10,13,55,30.30
2017,08,10,13,56,30.40
2017,08,10,13,57,30.40
2017,08,10,13,58,30.40
2017,08,10,13,59,30.40
2017,08,10,14,00,30.40
2017,08,10,14,01,30.40
2017,08,10,14,02,30.40
2017,08,10,14,03,30.40
2017,08,10,14,04,30.50
2017,08,10,14,05,30.50
2017,08,10,14,06,30.50
2017,08,10,14,07,30.50
2017,08,10,14,08,30.50
2017,08,10,14,09,30.50
2017,08,10,14,10,30.50
2017,08,10,14,11,30.40
2017,08,10,14,12,30.40
2017,08,10,14,13,30.50
2017,08,10,14,14,30.50
2017,08,10,14,15,30.50
2017,08,10,14,16,30.50
2017,08,10,14,17,30.50
2017,08,10,14,18,30.50
2017,08,10,14,19,30.60
2017,08,10,14,20,30.60
2017,08,10,14,21,30.60
2017,08,10,14,22,30.70
2017,08,10,14,23,30.70
2017,08,10,14,24,30.60
2017,08,10,14,25,30.60
2017,08,10,14,26,30.60
2017,08,10,14,27,30.60
2017,08,10,14,28,30.60
2017,08,10,14,29,30.70
2017,08,10,14,30,30.70
2017,08,10,14,31,30.80
2017,08,10,14,32,30.80
2017,08,10,14,33,30.90
2017,08,10,14,34,30.90
2017,08,10,14,35,30.90
2017,08,10,14,36,30.90
2017,08,10,14,37,30.90
2017,08,10,14,38,31.00
2017,08,10,14,39,31.00
2017,08,10,14,40,31.00
2017,08,10,14,41,31.00
2017,08,10,14,42,30.90
2017,08,10,14,43,30.80
2017,08,10,14,44,30.80
2017,08,10,14,45,30.80
2017,08,10,14,46,30.80
2017,08,10,14,47,30.80
2017,08,10,14,48,30.90
2017,08,10,14,49,30.90
2017,08,10,14,50,30.90
2017,08,10,14,51,30.90
2017,08,10,14,52,30.80
2017,08,10,14,53,30.80
2017,08,10,14,54,30.80
2017,08,10,14,55,30.80
2017,08,10,14,56,30.80
2017,08,10,14,57,30.80
2017,08,10,14,58,30.90
2017,08,10,14,59,30.90
2017,08,10,15,00,31.00
2017,08,10,15,01,31.00
2017,08,10,15,02,31.10
2017,08,10,15,03,31.20
2017,08,10,15,04,31.20
2017,08,10,15,05,31.30
2017,08,10,15,06,31.30
2017,08,10,15,07,31.30
2017,08,10,15,08,31.40
2017,08,10,15,09,31.40
2017,08,10,15,10,31.40
2017,08,10,15,11,31.40
2017,08,10,15,12,31.50
2017,08,10,15,13,31.60
2017,08,10,15,14,31.60
2017,08,10,15,15,31.50
2017,08,10,15,16,31.40
2017,08,10,15,17,31.40
2017,08,10,15,18,31.40
2017,08,10,15,19,31.40
2017,08,10,15,20,31.40
2017,08,10,15,21,31.30
2017,08,10,15,22,31.30
2017,08,10,15,23,31.20
2017,08,10,15,24,31.10
2017,08,10,15,25,31.10
2017,08,10,15,26,31.10
2017,08,10,15,27,31.10
2017,08,10,15,28,31.10
2017,08,10,15,29,31.10
2017,08,10,15,30,31.10
2017,08,10,15,31,31.10
2017,08,10,15,32,31.10
2017,08,10,15,33,31.10
2017,08,10,15,34,31.20
2017,08,10,15,35,31.30
2017,08,10,15,36,31.30
2017,08,10,15,37,31.30
2017,08,10,15,38,31.30
2017,08,10,15,39,31.30
2017,08,10,15,40,31.30
2017,08,10,15,41,31.40
2017,08,10,15,42,31.40
2017,08,10,15,43,31.40
2017,08,10,15,44,31.40
2017,08,10,15,45,31.50
2017,08,10,15,46,31.50
2017,08,10,15,47,31.60
2017,08,10,15,48,31.50
2017,08,10,15,49,31.50
2017,08,10,15,50,31.40
2017,08,10,15,51,31.40
2017,08,10,15,52,31.40
2017,08,10,15,53,31.40
2017,08,10,15,54,31.40
2017,08,10,15,55,31.40
2017,08,10,15,56,31.40
2017,08,10,15,57,31.40
2017,08,10,15,58,31.40
2017,08,10,15,59,31.50
2017,08,10,16,00,31.50
2017,08,10,16,01,31.50
2017,08,10,16,02,31.40
2017,08,10,16,03,31.40
2017,08,10,16,04,31.50
2017,08,10,16,05,31.60
2017,08,10,16,06,31.60
2017,08,10,16,07,31.60
2017,08,10,16,08,31.60
2017,08,10,16,09,31.60
2017,08,10,16,10,31.60
2017,08,10,16,11,31.60
2017,08,10,16,12,31.50
2017,08,10,16,13,31.50
2017,08,10,16,14,31.50
2017,08,10,16,15,31.40
2017,08,10,16,16,31.40
2017,08,10,16,17,31.40
2017,08,10,16,18,31.40
2017,08,10,16,19,31.40
2017,08,10,16,20,31.40
2017,08,10,16,21,31.40
2017,08,10,16,22,31.40
2017,08,10,16,23,31.50
2017,08,10,16,24,31.50
2017,08,10,16,25,31.50
2017,08,10,16,26,31.60
2017,08,10,16,27,31.60
2017,08,10,16,28,31.60
2017,08,10,16,29,31.60
2017,08,10,16,30,31.60
2017,08,10,16,31,31.60
2017,08,10,16,32,31.60
2017,08,10,16,33,31.70
2017,08,10,16,34,31.70
2017,08,10,16,35,31.80
2017,08,10,16,36,31.80
2017,08,10,16,37,31.80
2017,08,10,16,38,31.90
2017,08,10,16,39,31.90
2017,08,10,16,40,31.90
2017,08,10,16,41,31.90
2017,08,10,16,42,31.90
2017,08,10,16,43,31.90
2017,08,10,16,44,31.90
2017,08,10,16,45,31.80
2017,08,10,16,46,31.80
2017,08,10,16,47,31.80
2017,08,10,16,48,31.70
2017,08,10,16,49,31.70
2017,08,10,16,50,31.70
2017,08,10,16,51,31.60
2017,08,10,16,52,31.60
2017,08,10,16,53,31.60
2017,08,10,16,54,31.50
2017,08,10,16,55,31.50
2017,08,10,16,56,31.40
2017,08,10,16,57,31.40
2017,08,10,16,58,31.40
2017,08,10,16,59,31.40
2017,08,10,17,00,31.40
2017,08,10,17,01,31.40
2017,08,10,17,02,31.40
2017,08,10,17,03,31.40
2017,08,10,17,04,31.40
2017,08,10,17,05,31.30
2017,08,10,17,06,31.30
2017,08,10,17,07,31.30
2017,08,10,17,08,31.30
2017,08,10,17,09,31.30
2017,08,10,17,10,31.30
2017,08,10,17,11,31.30
2017,08,10,17,12,31.20
2017,08,10,17,13,31.20
2017,08,10,17,14,31.20
2017,08,10,17,15,31.20
2017,08,10,17,16,31.20
2017,08,10,17,17,31.10
2017,08,10,17,18,31.10
2017,08,10,17,19,31.10